Weather in Ganghwa

South Korea     37°27′56″N   126°38′50″E
temp.,
°C
wind,
m/s
gust,
m/s
humid.,
%
clouds,
%
prec.,
mm/h
press.,
hPa
HPBL,
m
14 june, mon
mon1400:00+20wsw227110 0.0 1008148
03:00+20w1169100 0.0 100786
06:00+20sw1169100 0.0 100772
09:00+23w0157100 0.0 1007343
12:00+26w3148100 0.0 1006775
15:00+26w3248100 0.0 1004580
18:00+26w2349100 0.0 1003259
21:00+25w2358100 0.0 1004189
15 june, tue
tue1500:00+22wsw346591 0.0 1005182
03:00+21sw2266100 0.0 1004184
06:00+21wsw1275100 0.9 1004100
09:00+19n1188100 5.2 1004243
12:00+20n339099 7.4 1005225
15:00+20nne3588100 10.0 1004272
18:00+21ene3684100 0.1 1002232
21:00+21ene11857 0.1 100426
16 june, wed
wed1600:00+20ne11850 0.0 100413
03:00+20ene4108013 0.0 1003443
06:00+20ne4117713 0.0 1004548
09:00+23ene711612 0.0 1005919
12:00+28e684484 0.0 10041633
15:00+28ene774118 0.0 10041699
18:00+27ene66465 0.0 10041370
21:00+23e586076 0.0 1006459
17 june, thu
thu1700:00+21e3761100 0.0 1006359
03:00+20e2366100 0.0 1006234
06:00+20e2467100 0.0 1005245
09:00+21ese2360100 0.0 1006413
12:00+24s3451100 0.0 1005893
15:00+23s3557100 0.0 1003780
18:00+22sw4564100 0.0 1003577
21:00+20sw4683100 0.0 1004375
18 june, fri
fri1800:00+19sw3487100 0.0 1003324
03:00+19wsw3694100 1.2 1001344
06:00+18wsw3596100 3.4 1000279
09:00+18sw51096100 8.3 1000475
12:00+19wsw599496 0.8 999457
15:00+20wsw589086 1.7 998475
18:00+20wsw358647 0.5 998439
21:00+18ssw249549 1.6 998188